FW7635 Weather Reports


Display with metric or nautical units.
time (UTC)temp
F
wind
direction
speed
MPH
gust
MPH
rain 1hr
in
rain 24hr
in
rain mn
in
humidity
%
barometer
mb
20260507050505 54 223 3.0 7.0 0.00 0.20 0.00 91 1099.8
20260507050005 54 223 3.0 8.0 0.00 0.20 0.00 91 1099.8
20260507045504 54 223 2.0 5.0 0.00 0.20 0.00 91 1099.8
20260507045004 54 209 1.0 6.0 0.00 0.20 0.00 91 1099.8
20260507044004 54 192 2.0 6.0 0.00 0.20 0.00 91 1099.8
20260507042505 54 208 3.0 8.0 0.00 0.20 0.00 91 1099.8
20260507042004 54 220 1.0 7.0 0.00 0.20 0.00 91 1099.8
20260507041504 55 220 2.0 7.0 0.00 0.20 0.00 91 1099.8
20260507041004 55 218 3.0 7.0 0.00 0.20 0.00 91 1099.8
20260507040504 55 215 2.0 6.0 0.00 0.20 0.00 91 1099.8
20260507040005 55 191 1.0 9.0 0.00 0.20 0.00 91 1099.8
20260507035504 55 219 2.0 9.0 0.00 0.20 0.20 91 1099.8
20260507035004 55 222 3.0 10.0 0.00 0.20 0.20 91 1099.8
20260507034504 55 227 2.0 6.0 0.00 0.20 0.20 91 1099.8
20260507034005 55 227 2.0 9.0 0.00 0.20 0.20 91 1099.8
20260507033504 55 227 3.0 8.0 0.00 0.20 0.20 91 1099.8
20260507033004 55 222 3.0 8.0 0.00 0.20 0.20 91 1099.8
20260507032504 54 215 4.0 9.0 0.00 0.20 0.20 91 1099.8
20260507031504 54 222 2.0 7.0 0.00 0.20 0.20 91 1099.8
20260507031004 54 213 3.0 12.0 0.00 0.20 0.20 91 1099.8
20260507030504 54 238 4.0 12.0 0.00 0.20 0.20 91 1099.8
20260507030004 54 226 5.0 14.0 0.00 0.20 0.20 91 1099.8
20260507025505 55 236 3.0 12.0 0.00 0.20 0.20 91 1099.8
20260507025004 55 216 4.0 13.0 0.00 0.20 0.20 91 1099.8
20260507024504 55 242 3.0 10.0 0.00 0.20 0.20 91 1099.8
20260507024005 55 242 2.0 5.0 0.00 0.20 0.20 91 1099.8
20260507023504 55 242 3.0 9.0 0.00 0.20 0.20 91 1099.8
20260507023004 55 242 4.0 10.0 0.00 0.20 0.20 91 1099.8
20260507022504 55 242 3.0 13.0 0.00 0.20 0.20 91 1099.8
20260507022005 55 237 5.0 10.0 0.00 0.20 0.20 91 1099.8
20260507021505 55 238 3.0 12.0 0.00 0.20 0.20 91 1099.8
20260507021005 55 223 5.0 16.0 0.00 0.20 0.20 91 1099.8
20260507020004 56 234 4.0 12.0 0.00 0.20 0.20 91 1099.8
20260507015505 56 225 4.0 10.0 0.00 0.20 0.20 91 1099.8
20260507014004 56 204 6.0 12.0 0.01 0.20 0.20 90 1099.8
20260507013505 56 241 5.0 12.0 0.02 0.20 0.20 91 1099.8
20260507012505 56 228 5.0 14.0 0.03 0.20 0.20 90 1099.8
20260507012004 56 240 6.0 12.0 0.03 0.20 0.20 90 1099.8
20260507011505 56 206 5.0 12.0 0.04 0.20 0.20 90 1099.8
20260507011005 56 250 5.0 13.0 0.05 0.20 0.20 90 1099.8
20260507010505 56 232 5.0 9.0 0.05 0.20 0.20 90 1099.8
20260507005504 56 211 7.0 20.0 0.07 0.20 0.20 90 1099.8
20260507005004 56 232 7.0 16.0 0.07 0.19 0.19 90 1099.8
20260507004504 56 234 5.0 10.0 0.08 0.19 0.19 90 1099.8
20260507003505 56 246 4.0 13.0 0.09 0.18 0.18 90 1099.8
20260507003005 56 263 4.0 20.0 0.12 0.18 0.18 90 1099.8
20260507002504 56 193 5.0 15.0 0.11 0.17 0.17 90 1099.8
20260507002004 56 231 5.0 12.0 0.12 0.17 0.17 90 1099.8
20260507001504 56 227 3.0 12.0 0.11 0.16 0.16 90 1099.8
20260507001005 56 223 5.0 15.0 0.11 0.15 0.15 90 1099.8
20260507000504 56 250 6.0 13.0 0.11 0.15 0.15 90 1099.8
20260507000004 56 194 6.0 16.0 0.11 0.14 0.14 90 1099.8
20260506235504 56 236 3.0 9.0 0.11 0.13 0.13 90 1099.8
20260506234505 56 240 6.0 13.0 0.10 0.11 0.11 89 1099.8
20260506234005 56 228 6.0 14.0 0.09 0.10 0.10 89 1099.8
20260506233504 56 230 6.0 14.0 0.08 0.09 0.09 89 1099.8
20260506233005 56 223 5.0 12.0 0.05 0.06 0.06 89 1099.8
20260506232504 56 241 3.0 14.0 0.06 0.06 0.06 89 1099.8
20260506232004 56 234 8.0 15.0 0.05 0.05 0.05 89 1099.8
20260506231504 56 195 7.0 22.0 0.05 0.05 0.05 89 1099.8
20260506231005 56 213 7.0 16.0 0.04 0.04 0.04 88 1099.8
20260506230504 56 229 6.0 20.0 0.04 0.04 0.04 88 1099.8
20260506230004 56 259 6.0 15.0 0.03 0.03 0.03 88 1099.8
20260506225505 56 236 4.0 13.0 0.02 0.02 0.02 88 1099.8
20260506225004 56 225 6.0 20.0 0.02 0.02 0.02 87 1099.8
20260506224506 56 223 5.0 20.0 0.01 0.01 0.01 87 1099.8
20260506223504 57 212 6.0 16.0 0.01 0.01 0.01 87 1099.8
20260506222504 57 222 6.0 15.0 0.00 0.00 0.00 86 1099.8
20260506222004 57 228 6.0 20.0 0.00 0.00 0.00 85 1099.8
20260506221504 58 247 6.0 15.0 0.00 0.00 0.00 85 1099.8
20260506221004 58 258 5.0 12.0 0.00 0.00 0.00 84 1099.8
20260506220505 58 221 6.0 13.0 0.00 0.00 0.00 83 1099.8
20260506220005 58 234 7.0 13.0 0.00 0.00 0.00 83 1099.8
20260506215505 58 232 5.0 10.0 0.00 0.00 0.00 83 1099.8
20260506215006 58 227 5.0 10.0 0.00 0.00 0.00 83 1099.8
20260506214005 58 238 7.0 18.0 0.00 0.00 0.00 83 1099.8
20260506213504 59 218 7.0 18.0 0.00 0.00 0.00 83 1099.8
20260506213004 58 236 7.0 14.0 0.00 0.00 0.00 83 1099.8
20260506212504 58 232 5.0 20.0 0.00 0.00 0.00 83 1099.8
20260506212004 58 227 5.0 12.0 0.00 0.00 0.00 83 1099.8
20260506211504 58 223 8.0 15.0 0.00 0.00 0.00 83 1099.8
20260506211004 58 253 5.0 13.0 0.00 0.00 0.00 82 1099.8
20260506210504 58 240 6.0 13.0 0.00 0.00 0.00 82 1099.8
20260506210005 58 252 7.0 20.0 0.00 0.00 0.00 82 1099.8
20260506205504 58 222 10.0 24.0 0.00 0.00 0.00 82 1099.8
20260506205004 58 241 7.0 16.0 0.00 0.00 0.00 81 1099.8
20260506204504 59 217 8.0 21.0 0.00 0.00 0.00 80 1099.8
20260506204005 59 252 7.0 22.0 0.00 0.00 0.00 80 1099.8
20260506203504 59 222 9.0 21.0 0.00 0.00 0.00 81 1099.8
20260506202504 58 236 7.0 14.0 0.00 0.00 0.00 81 1099.8
20260506202004 58 237 7.0 13.0 0.00 0.00 0.00 80 1099.8
20260506201504 58 220 7.0 13.0 0.00 0.00 0.00 80 1099.8
20260506201004 58 212 6.0 20.0 0.00 0.00 0.00 80 1099.8
20260506200505 59 233 7.0 23.0 0.00 0.00 0.00 80 1099.8
20260506200005 59 240 6.0 20.0 0.00 0.00 0.00 79 1099.8
20260506195504 59 229 8.0 22.0 0.00 0.00 0.00 79 1099.8
20260506195004 59 220 5.0 15.0 0.00 0.00 0.00 79 1099.8
20260506194505 59 230 9.0 16.0 0.00 0.00 0.00 79 1099.8
20260506194005 59 230 7.0 22.0 0.00 0.00 0.00 79 1099.8
20260506193505 60 224 6.0 20.0 0.00 0.00 0.00 79 1099.8
20260506193005 59 207 9.0 20.0 0.00 0.00 0.00 79 1099.8
20260506192505 59 193 9.0 21.0 0.00 0.00 0.00 78 1099.8
20260506192005 60 226 6.0 18.0 0.00 0.00 0.00 78 1099.8
20260506191505 60 263 6.0 20.0 0.00 0.00 0.00 78 1099.8
20260506191004 60 240 6.0 18.0 0.00 0.00 0.00 78 1099.8
20260506190504 60 215 6.0 20.0 0.00 0.00 0.00 78 1099.8
20260506190005 60 207 6.0 18.0 0.00 0.00 0.00 78 1099.8
20260506185504 60 223 10.0 22.0 0.00 0.00 0.00 77 1099.8
20260506184504 60 238 10.0 24.0 0.00 0.00 0.00 78 1099.8
20260506184005 60 213 8.0 20.0 0.00 0.00 0.00 77 1099.8
20260506183504 60 216 7.0 14.0 0.00 0.00 0.00 77 1099.8
20260506183005 60 227 9.0 18.0 0.00 0.00 0.00 77 1099.8
20260506182504 60 230 6.0 14.0 0.00 0.00 0.00 77 1099.8
20260506182004 60 235 6.0 18.0 0.00 0.00 0.00 77 1099.8
20260506181004 62 194 6.0 15.0 0.00 0.00 0.00 75 1099.8
20260506180504 62 224 6.0 15.0 0.00 0.00 0.00 75 1099.8
20260506180005 63 196 6.0 15.0 0.00 0.00 0.00 75 1099.8
20260506175505 63 212 9.0 18.0 0.00 0.00 0.00 74 1099.8
20260506174505 63 239 9.0 22.0 0.00 0.00 0.00 75 1099.8
20260506174004 63 241 11.0 23.0 0.00 0.00 0.00 74 1099.8
20260506173505 63 235 6.0 16.0 0.00 0.00 0.00 74 1099.8
20260506173004 63 237 6.0 24.0 0.00 0.00 0.00 75 1099.8
20260506172504 62 228 9.0 25.0 0.00 0.00 0.00 74 1099.8
20260506172005 63 217 7.0 25.0 0.00 0.00 0.00 75 1099.8
20260506171504 62 222 7.0 13.0 0.00 0.00 0.00 76 1099.8
20260506171005 61 252 10.0 25.0 0.00 0.00 0.00 76 1099.8
20260506170505 61 212 8.0 24.0 0.00 0.00 0.00 76 1099.8
20260506170005 61 193 7.0 18.0 0.00 0.00 0.00 76 1099.8
20260506165505 62 215 9.0 21.0 0.00 0.00 0.00 75 1099.8
20260506165005 62 198 7.0 15.0 0.00 0.00 0.00 75 1099.8
20260506164504 62 205 5.0 14.0 0.00 0.00 0.00 75 1099.8
20260506164004 62 216 9.0 23.0 0.00 0.00 0.00 75 1099.8
20260506163505 63 211 7.0 13.0 0.00 0.00 0.00 75 1099.8
20260506163005 63 225 7.0 16.0 0.00 0.00 0.00 74 1099.8
20260506162504 63 255 5.0 14.0 0.00 0.00 0.00 75 1099.8
20260506162004 63 216 6.0 21.0 0.00 0.00 0.00 75 1099.8
20260506161504 63 255 8.0 20.0 0.00 0.00 0.00 74 1099.8
20260506161005 62 226 5.0 20.0 0.00 0.00 0.00 76 1099.8
20260506160504 62 243 12.0 31.0 0.00 0.00 0.00 75 1099.8
20260506160005 62 211 7.0 15.0 0.00 0.00 0.00 74 1099.8
20260506155505 62 229 6.0 20.0 0.00 0.00 0.00 75 1099.8
20260506155004 63 214 10.0 25.0 0.00 0.00 0.00 75 1099.8
20260506153004 62 202 10.0 20.0 0.00 0.00 0.00 75 1099.8
20260506152004 61 202 9.0 25.0 0.00 0.00 0.00 75 1099.8
20260506151505 61 233 7.0 14.0 0.00 0.00 0.00 76 1099.8
20260506151004 61 225 6.0 14.0 0.00 0.00 0.00 76 1099.8
20260506150505 61 225 8.0 22.0 0.00 0.00 0.00 76 1099.8
20260506150004 60 241 6.0 14.0 0.00 0.00 0.00 77 1099.8
20260506145506 60 228 7.0 20.0 0.00 0.00 0.00 77 1099.8
20260506145006 61 227 8.0 14.0 0.00 0.00 0.00 76 1099.8
20260506144504 61 214 7.0 20.0 0.00 0.00 0.00 77 1099.8
20260506144005 60 231 9.0 20.0 0.00 0.00 0.00 77 1099.8
20260506143505 60 239 8.0 13.0 0.00 0.00 0.00 76 1099.8
20260506143004 61 223 7.0 23.0 0.00 0.00 0.00 77 1099.8
20260506142504 61 218 10.0 26.0 0.00 0.00 0.00 75 1099.8
20260506141504 63 189 8.0 15.0 0.00 0.00 0.00 74 1099.8
20260506140504 63 233 7.0 22.0 0.00 0.00 0.00 74 1099.8
20260506140005 63 232 5.0 15.0 0.00 0.00 0.00 75 1099.8
20260506135004 62 211 9.0 18.0 0.00 0.00 0.00 75 1099.8
20260506134505 62 265 8.0 15.0 0.00 0.00 0.00 75 1099.8
20260506134004 62 238 5.0 12.0 0.00 0.00 0.00 76 1099.8
20260506133504 62 229 6.0 15.0 0.00 0.00 0.00 76 1099.8
20260506133005 62 230 7.0 13.0 0.00 0.00 0.00 77 1099.8
20260506132504 61 218 7.0 20.0 0.00 0.00 0.00 77 1099.8
20260506132005 61 221 5.0 18.0 0.00 0.00 0.00 78 1099.8
20260506131504 61 207 7.0 14.0 0.00 0.00 0.00 77 1099.8
20260506130504 60 203 9.0 21.0 0.00 0.00 0.00 77 1099.8
20260506125504 61 214 6.0 14.0 0.00 0.00 0.00 77 1099.8
20260506125005 61 225 7.0 22.0 0.00 0.00 0.00 78 1099.8
20260506124504 61 232 3.0 13.0 0.00 0.00 0.00 79 1099.8
20260506124005 60 224 4.0 14.0 0.00 0.00 0.00 79 1099.8
20260506123505 59 201 9.0 28.0 0.00 0.00 0.00 79 1099.8
20260506122504 59 203 6.0 13.0 0.00 0.00 0.00 80 1099.8
20260506122005 60 236 4.0 9.0 0.00 0.00 0.00 80 1099.8
20260506121504 60 167 6.0 12.0 0.00 0.00 0.00 80 1099.8
20260506121005 60 233 6.0 13.0 0.00 0.00 0.00 80 1099.8
20260506120504 59 244 6.0 12.0 0.00 0.00 0.00 81 1099.8
20260506120005 59 244 4.0 10.0 0.00 0.00 0.00 81 1099.8
20260506115005 58 229 6.0 15.0 0.00 0.00 0.00 82 1099.8
20260506114504 58 206 5.0 9.0 0.00 0.00 0.00 83 1099.8
20260506113505 58 211 5.0 21.0 0.00 0.00 0.00 83 1099.8
20260506113005 58 238 6.0 15.0 0.00 0.00 0.00 83 1099.8
20260506111504 58 202 6.0 15.0 0.00 0.00 0.00 84 1099.8
20260506111004 57 213 5.0 9.0 0.00 0.00 0.00 85 1099.8
20260506110504 56 218 4.0 16.0 0.00 0.00 0.00 86 1099.8
20260506110004 56 224 5.0 15.0 0.00 0.00 0.00 86 1099.8
20260506105504 56 233 5.0 12.0 0.00 0.00 0.00 87 1099.8
20260506105005 55 217 3.0 12.0 0.00 0.00 0.00 87 1099.8
20260506104505 55 221 3.0 14.0 0.00 0.00 0.00 87 1099.8
20260506104005 55 204 5.0 14.0 0.00 0.00 0.00 87 1099.8
20260506103505 55 240 5.0 14.0 0.00 0.00 0.00 87 1099.8
20260506103005 55 228 5.0 14.0 0.00 0.00 0.00 87 1099.8
20260506101504 55 237 5.0 12.0 0.00 0.00 0.00 87 1099.8
20260506101004 55 219 5.0 12.0 0.00 0.00 0.00 87 1099.8
20260506100504 55 201 6.0 12.0 0.00 0.00 0.00 87 1099.8
20260506095504 55 199 4.0 10.0 0.00 0.00 0.00 87 1099.8
20260506095005 55 231 5.0 10.0 0.00 0.00 0.00 87 1099.8
20260506094504 55 193 5.0 10.0 0.00 0.00 0.00 87 1099.8
20260506094006 55 210 5.0 12.0 0.00 0.00 0.00 87 1099.8
20260506093505 55 218 4.0 13.0 0.00 0.00 0.00 86 1099.8
20260506093004 56 209 5.0 12.0 0.00 0.00 0.00 86 1099.8
20260506092005 56 216 5.0 12.0 0.00 0.00 0.00 86 1099.8
20260506091505 56 229 6.0 12.0 0.00 0.00 0.00 86 1099.8
20260506091005 56 222 5.0 12.0 0.00 0.00 0.00 86 1099.8
20260506090505 56 229 5.0 20.0 0.00 0.00 0.00 86 1099.8
20260506090004 56 208 7.0 20.0 0.00 0.00 0.00 86 1099.8
20260506085504 57 238 6.0 16.0 0.00 0.00 0.00 86 1099.8
20260506085005 57 205 4.0 12.0 0.00 0.00 0.00 87 1099.8
20260506084504 57 229 4.0 15.0 0.00 0.00 0.00 87 1099.8
20260506084004 57 229 7.0 14.0 0.00 0.00 0.00 87 1099.8
20260506083504 56 224 5.0 12.0 0.00 0.00 0.00 87 1099.8
20260506083005 56 201 5.0 13.0 0.00 0.00 0.00 87 1099.8
20260506082504 56 237 7.0 18.0 0.00 0.00 0.00 87 1099.8
20260506082005 56 200 6.0 16.0 0.00 0.00 0.00 87 1099.8
20260506081505 56 232 5.0 16.0 0.00 0.00 0.00 87 1099.8
20260506081004 56 201 6.0 14.0 0.00 0.00 0.00 87 1099.8
20260506080505 56 229 3.0 13.0 0.00 0.00 0.00 87 1099.8
20260506073504 55 197 5.0 12.0 0.00 0.00 0.00 87 1099.8
20260506073005 55 228 6.0 14.0 0.00 0.00 0.00 87 1099.8
20260506072504 55 188 4.0 12.0 0.00 0.00 0.00 87 1099.8
20260506071005 55 220 6.0 15.0 0.00 0.00 0.00 87 1099.8
20260506070505 55 194 6.0 13.0 0.00 0.00 0.00 87 1099.8
20260506062505 54 236 3.0 10.0 0.00 0.00 0.00 86 1099.8
20260506062005 54 236 3.0 8.0 0.00 0.00 0.00 86 1099.8
20260506061504 54 235 0.0 8.0 0.00 0.00 0.00 86 1099.8
20260506061005 54 235 5.0 12.0 0.00 0.00 0.00 86 1099.8
20260506060504 54 236 3.0 9.0 0.00 0.00 0.00 86 1099.8
20260506051005 54 236 2.0 8.0 0.00 0.00 0.00 86 1099.8